Ashtabula, OH

8:23 AM EST on December 12, 2017 (GMT -0500)
Ashtabula County

Weather History for KHZY - March, 2014

Change the Weather History Date:

Thursday, March 13, 2014

  Actual Average (KGKJ) Record (KGKJ)
Temperature  
Mean Temperature 12 °F -  
Max Temperature 24 °F 42 °F 77 °F (1990)
Min Temperature 3 °F 23 °F -4 °F (1984)
Degree Days  
Heating Degree Days 53    
Moisture  
Dew Point 1 °F    
Average Humidity 60    
Maximum Humidity 70    
Minimum Humidity 42    
Precipitation  
Precipitation 0.00 in - - ()
Sea Level Pressure  
Sea Level Pressure 30.06 in    
Wind  
Wind Speed 9 mph (NW)    
Max Wind Speed 13 mph    
Max Gust Speed 20 mph    
Visibility 9 miles    
Events Snow    
Averages and records for this station are not official NWS values.
T = Trace of Precipitation, MM = Missing Value Source: NWS Daily Summary

Daily Weather History Graph

Daily Weather History Graph

Search for Another Location

Airport or City:

Trip Planner

Search our weather history database for the weather conditions in past years. The results will help you decide how hot, cold, wet, or windy it might be!

Date:

Astronomy

Mar. 13, 2014 Rise Set
Actual Time 7:38 AM EDT 7:27 PM EDT
Civil Twilight 7:10 AM EDT 7:54 PM EDT
Nautical Twilight 6:38 AM EDT 8:27 PM EDT
Astronomical Twilight 6:05 AM EDT 8:59 PM EDT
Moon 4:49 PM EDT (3/13) 5:46 AM EDT (3/13)
Length of Visible Light 12h 44m
Length of Day
11h 49m
Waxing Gibbous, 91% of the Moon is Illuminated
Mar 13
Waxing Gibbous
Mar 16
Full
Mar 23
Last Quarter
Mar 30
New
Apr 7
First Quarter

Hourly Weather History & Observations

Time (EDT) Temp. Windchill Dew Point Humidity Pressure Visibility Wind Dir Wind Speed Gust Speed Precip Events Conditions
12:19 AM 8.6 °F -4.7 °F -2.2 °F 62% 29.86 in 10.0 mi NNW 9.2 mph - N/A   Mostly Cloudy
12:53 AM 8.1 °F -6.2 °F -2.0 °F 64% 29.92 in 10.0 mi NNW 10.4 mph 17.3 mph N/A   Overcast
1:53 AM 7.0 °F -9.1 °F -2.0 °F 67% 29.91 in 10.0 mi NNW 12.7 mph 16.1 mph N/A   Mostly Cloudy
2:31 AM 6.8 °F -8.6 °F -4.0 °F 61% 29.88 in 10.0 mi NNW 11.5 mph - N/A   Scattered Clouds
2:53 AM 6.1 °F -6.8 °F -4.0 °F 63% 29.93 in 10.0 mi NNW 8.1 mph 18.4 mph N/A   Clear
3:53 AM 6.1 °F -8.7 °F -5.1 °F 60% 29.94 in 10.0 mi NNW 10.4 mph - N/A   Clear
4:53 AM 6.1 °F -6.8 °F -5.1 °F 60% 29.96 in 10.0 mi NNW 8.1 mph - N/A   Clear
5:53 AM 5.0 °F -8.1 °F -4.0 °F 66% 29.99 in 10.0 mi NNW 8.1 mph - N/A   Clear
6:53 AM 3.9 °F -5.3 °F -4.0 °F 70% 30.02 in 10.0 mi NNW 4.6 mph - N/A   Partly Cloudy
7:05 AM 5.0 °F -4.1 °F -4.0 °F 66% 29.97 in 10.0 mi NNW 4.6 mph - N/A   Mostly Cloudy
7:53 AM 5.0 °F -5.6 °F -2.9 °F 70% 30.05 in 7.0 mi NNW 5.8 mph - N/A   Overcast
8:53 AM 7.0 °F -6.6 °F -0.9 °F 70% 30.09 in 9.0 mi NW 9.2 mph - N/A   Overcast
9:53 AM 8.1 °F -7.0 °F -0.9 °F 67% 30.12 in 10.0 mi NNW 11.5 mph 19.6 mph N/A   Overcast
10:53 AM 10.0 °F -5.2 °F 1.0 °F 67% 30.14 in 9.0 mi NW 12.7 mph - N/A   Overcast
11:53 AM 12.0 °F -2.0 °F 3.0 °F 67% 30.15 in 6.0 mi NW 11.5 mph - N/A Snow Light Snow
12:37 PM 12.2 °F -1.8 °F 3.2 °F 67% 30.11 in 1.8 mi NW 11.5 mph 18.4 mph N/A Snow Light Snow
12:47 PM 12.2 °F 1.7 °F 3.2 °F 67% 30.11 in 3.0 mi WNW 6.9 mph - N/A Snow Light Snow
12:53 PM 14.0 °F 0.5 °F 3.0 °F 62% 30.17 in 6.0 mi WNW 11.5 mph - N/A Snow Light Snow
1:27 PM 14.0 °F 1.2 °F 1.4 °F 57% 30.11 in 10.0 mi WNW 10.4 mph - N/A   Partly Cloudy
1:53 PM 16.0 °F 2.9 °F 3.0 °F 57% 30.15 in 10.0 mi WNW 11.5 mph - N/A   Clear
2:53 PM 16.0 °F 2.9 °F 3.0 °F 57% 30.14 in 10.0 mi West 11.5 mph - N/A   Clear
3:53 PM 18.0 °F 6.9 °F 3.0 °F 52% 30.14 in 10.0 mi WNW 9.2 mph - N/A   Clear
4:53 PM 19.0 °F 7.5 °F 1.9 °F 47% 30.15 in 10.0 mi WNW 10.4 mph - N/A   Clear
5:53 PM 19.0 °F 11.1 °F 5.0 °F 54% 30.13 in 10.0 mi West 5.8 mph - N/A   Clear
6:53 PM 19.0 °F - 5.0 °F 54% 30.14 in 10.0 mi Calm Calm - N/A   Partly Cloudy
7:53 PM 18.0 °F - 7.0 °F 62% 30.14 in 10.0 mi Calm Calm - N/A   Mostly Cloudy
8:53 PM 21.0 °F 12.4 °F 1.9 °F 44% 30.13 in 10.0 mi SW 6.9 mph - N/A   Overcast
9:53 PM 21.9 °F 13.4 °F 1.9 °F 42% 30.12 in 10.0 mi SSW 6.9 mph - N/A   Overcast
10:53 PM 21.9 °F 12.5 °F 3.9 °F 46% 30.11 in 10.0 mi SSW 8.1 mph - N/A   Overcast
11:53 PM 23.0 °F 15.8 °F 6.1 °F 48% 30.10 in 10.0 mi South 5.8 mph - N/A   Overcast